Rbgn^[z[y[W
メイン
   新天体発見情報
     Comet C/2024 G2 (ATLAS)
投稿するにはまず登録を

スレッド表示 | 新しいものから 前のトピック | 次のトピック | 下へ
投稿者 スレッド
佐藤裕久
投稿日時: 2024-4-28 20:55
モデレータ
登録日: 2005-6-12
居住地: 日本
投稿: 2559
オンライン
Comet C/2024 G2 (ATLAS)

4月5日UT、チリ Rio Hurtadoにある小惑星地球衝突最終警報システム Asteroid Terrestrial-impact 
Last Alert System (ATLAS)調査プログラムのコースに0.5-m f/2 Schmidt反射望遠鏡で得たCCD画像か
ら見かけ上小惑星状天体が発見された。
小惑星センターのPCCP webpageに公表後、吉本勝巳氏(山口県熊毛郡平生町, 4月8.27-8.29日UT、
0.36-m f/7.2 反射望遠鏡 Corrected Dall-Kirkham, Rio Hurtado, チリ,遠隔操作: 頭部はほほ恒星
状で、 p.a. 245°に6"のかすかな尾が見える。V光度は19.3と測定した)らCCD位置観測者によって
彗星状と観測された。

彗星機能の報告は次のとおり、

OC   Date        Reporter           Coma    Tail    PA          Exposures
X07  2024-04-06  H. Sato            5"                            6x60s
W68  2024-04-08  A. Fitzsimmons    13"                            6x110s 
X07  2024-04-08  M. Mattiazzo       5"
M21  2024-04-11  A. Aletti          7"                           21x300s
L09  2024-04-16  A. Hale            3"        7".5  300

発見位置は次のとおり、

     2024 UT             R.A. (2000) Decl.       Mag.
     Apr.  5.26369   18 15 45.79   -74 35 25.7   19.2
           5.28177   18 15 44.96   -74 35 36.7   18.8
           5.28591   18 15 45.10   -74 35 39.2   18.7
           5.29849   18 15 44.58   -74 35 47.0   18.8
           5.30553   18 15 44.41   -74 35 51.3   18.4

MPCの楕円軌道要素、位置推算表は次のとおり、

Orbital elements:
    C/2024 G3 (ATLAS)                                                           
Epoch 2025 Jan. 5.0 TT = JDT 2460680.5                                          
T 2025 Jan. 13.44359 TT                                 Rudenko                 
q   0.0935656            (2000.0)            P               Q                  
z  +0.0000120      Peri.  108.13072     -0.04066614     +0.81516642             
 +/-0.0000001      Node   220.35582     +0.14750825     +0.57683743             
e   0.9999989      Incl.  116.83545     +0.98822446     -0.05255750             
From 87 observations 2024 Apr. 5-17, mean residual 0".5.                        
                                                                                
Ephemeris:
Date    TT    R. A. (2000) Decl.     Delta      r    Elong.  Phase   m1
2024 03 19    18 15 06.1 -71 55 17   4.7776  4.8438    87.9    11.9  19.2
...
2024 04 03    18 16 35.3 -74 13 04   4.4447  4.6781    97.3    12.2  18.9
...
2024 04 11    18 11 57.0 -75 33 22   4.2719  4.5886   102.1    12.3  18.8
...
2024 04 17    18 04 47.5 -76 35 02   4.1461  4.5209   105.6    12.3  18.6
2024 04 18    18 03 13.4 -76 45 19   4.1255  4.5096   106.2    12.3  18.6
2024 04 19    18 01 32.1 -76 55 34   4.1050  4.4982   106.7    12.3  18.6
...
2024 04 25    17 48 35.9 -77 55 53   3.9847  4.4299   109.9    12.3  18.5
...
2024 05 03    17 22 20.2 -79 08 45   3.8322  4.3379   113.8    12.3  18.3
...
2024 05 18    16 00 48.7 -80 23 16   3.5760  4.1628   119.1    12.3  18.0

(MPEC 2024-H22、CBET 5384)


スレッド表示 | 新しいものから 前のトピック | 次のトピック | トップ

投稿するにはまず登録を
 
© 1999 Tsutomu Seki.